EA3BIN-13 Weather Reports


time (UTC)temp
C
wind
direction
speed
KPH
gust
KPH
rain 1hr
cm
rain 24hr
cm
rain mn
cm
humidity
%
barometer
mb
20260904174035 31 0.0 0.0 0.00 0.00 0.00 72 1017.7
20260904173036 31 0.0 0.0 0.00 0.00 0.00 62 1017.4
20260904172041 33 0.0 0.0 0.00 0.00 0.00 51 1017.0
20260904171035 42 0.0 0.0 0.00 0.00 0.00 30 1015.5
20260904170035 44 0.0 0.0 0.00 0.00 0.00 28 1015.2
20260904165041 45 0.0 0.0 0.00 0.00 0.00 27 1014.9
20260904164035 48 0.0 0.0 0.00 0.00 0.00 23 1014.4
20260904163041 48 0.0 0.0 0.00 0.00 0.00 22 1014.3
20260904162041 51 0.0 0.0 0.00 0.00 0.00 20 1014.0
20260904161036 53 0.0 0.0 0.00 0.00 0.00 17 1013.8
20260904160035 53 0.0 0.0 0.00 0.00 0.00 17 1013.8
20260904155035 53 0.0 0.0 0.00 0.00 0.00 17 1013.9
20260904154036 53 0.0 0.0 0.00 0.00 0.00 17 1013.9
20260904153035 52 0.0 0.0 0.00 0.00 0.00 18 1013.9
20260904152036 54 0.0 0.0 0.00 0.00 0.00 16 1013.8
20260904151036 54 0.0 0.0 0.00 0.00 0.00 16 1013.9
20260904150041 53 0.0 0.0 0.00 0.00 0.00 17 1013.9
20260904145035 54 0.0 0.0 0.00 0.00 0.00 17 1013.9
20260904144035 52 0.0 0.0 0.00 0.00 0.00 18 1014.1
20260904143036 52 0.0 0.0 0.00 0.00 0.00 19 1014.2
20260904142036 47 0.0 0.0 0.00 0.00 0.00 24 1014.9
20260904141036 38 0.0 0.0 0.00 0.00 0.00 37 1016.3
20260904140035 37 0.0 0.0 0.00 0.00 0.00 38 1016.5
20260904135046 37 0.0 0.0 0.00 0.00 0.00 38 1016.4
20260904134041 38 0.0 0.0 0.00 0.00 0.00 36 1016.3
20260904133035 38 0.0 0.0 0.00 0.00 0.00 36 1016.2
20260904132035 37 0.0 0.0 0.00 0.00 0.00 37 1016.4
20260904131035 37 0.0 0.0 0.00 0.00 0.00 36 1016.6
20260904130036 37 0.0 0.0 0.00 0.00 0.00 36 1016.5
20260904125035 37 0.0 0.0 0.00 0.00 0.00 36 1016.7
20260904124035 37 0.0 0.0 0.00 0.00 0.00 37 1016.7
20260904123035 37 0.0 0.0 0.00 0.00 0.00 35 1017.0
20260904122035 37 0.0 0.0 0.00 0.00 0.00 34 1017.1
20260904121035 36 0.0 0.0 0.00 0.00 0.00 35 1017.4
20260904120036 36 0.0 0.0 0.00 0.00 0.00 37 1017.5
20260904115036 36 0.0 0.0 0.00 0.00 0.00 36 1017.7
20260904114035 36 0.0 0.0 0.00 0.00 0.00 35 1017.6
20260904113035 35 0.0 0.0 0.00 0.00 0.00 38 1017.7
20260904112035 35 0.0 0.0 0.00 0.00 0.00 37 1017.9
20260904111035 35 0.0 0.0 0.00 0.00 0.00 37 1017.9
20260904110036 34 0.0 0.0 0.00 0.00 0.00 39 1018.2
20260904105036 33 0.0 0.0 0.00 0.00 0.00 42 1018.5
20260904104036 34 0.0 0.0 0.00 0.00 0.00 39 1018.5
20260904103036 33 0.0 0.0 0.00 0.00 0.00 43 1018.8
20260904102035 33 0.0 0.0 0.00 0.00 0.00 43 1018.8
20260904101035 32 0.0 0.0 0.00 0.00 0.00 48 1018.9
20260904100035 32 0.0 0.0 0.00 0.00 0.00 50 1019.1
20260904095036 31 0.0 0.0 0.00 0.00 0.00 56 1019.3
20260904094036 31 0.0 0.0 0.00 0.00 0.00 60 1019.5
20260904093036 30 0.0 0.0 0.00 0.00 0.00 65 1019.6
20260904092035 29 0.0 0.0 0.00 0.00 0.00 70 1019.6
20260904091041 29 0.0 0.0 0.00 0.00 0.00 74 1019.8
20260904090036 28 0.0 0.0 0.00 0.00 0.00 77 1019.8
20260904085036 27 0.0 0.0 0.00 0.00 0.00 87 1020.0
20260904084035 27 0.0 0.0 0.00 0.00 0.00 89 1020.2
20260904083035 26 0.0 0.0 0.00 0.00 0.00 91 1020.2
20260904082041 26 0.0 0.0 0.00 0.00 0.00 99 1020.3
20260904081041 25 0.0 0.0 0.00 0.00 0.00 10 1020.3
20260904080036 24 0.0 0.0 0.00 0.00 0.00 10 1020.4
20260904075035 23 0.0 0.0 0.00 0.00 0.00 10 1020.5
20260904074036 23 0.0 0.0 0.00 0.00 0.00 10 1020.7
20260904073041 22 0.0 0.0 0.00 0.00 0.00 10 1020.7
20260904072036 22 0.0 0.0 0.00 0.00 0.00 10 1020.8
20260904071036 22 0.0 0.0 0.00 0.00 0.00 10 1020.8
20260904070035 21 0.0 0.0 0.00 0.00 0.00 10 1021.0
20260904065046 21 0.0 0.0 0.00 0.00 0.00 10 1020.9
20260904064035 21 0.0 0.0 0.00 0.00 0.00 10 1020.9
20260904063035 21 0.0 0.0 0.00 0.00 0.00 10 1021.0
20260904062036 20 0.0 0.0 0.00 0.00 0.00 10 1020.9
20260904061036 20 0.0 0.0 0.00 0.00 0.00 10 1020.9
20260904060036 20 0.0 0.0 0.00 0.00 0.00 10 1020.9
20260904055036 20 0.0 0.0 0.00 0.00 0.00 10 1020.9
20260904054036 20 0.0 0.0 0.00 0.00 0.00 10 1020.8
20260904053035 20 0.0 0.0 0.00 0.00 0.00 10 1020.9
20260904052035 20 0.0 0.0 0.00 0.00 0.00 10 1020.9
20260904051041 20 0.0 0.0 0.00 0.00 0.00 10 1020.9
20260904050035 20 0.0 0.0 0.00 0.00 0.00 10 1020.9
20260904045036 20 0.0 0.0 0.00 0.00 0.00 10 1020.9
20260904044035 20 0.0 0.0 0.00 0.00 0.00 10 1021.1
20260904043036 20 0.0 0.0 0.00 0.00 0.00 10 1021.1
20260904042051 20 0.0 0.0 0.00 0.00 0.00 10 1021.1
20260904041036 21 0.0 0.0 0.00 0.00 0.00 10 1021.1
20260904040035 20 0.0 0.0 0.00 0.00 0.00 10 1021.2
20260904035046 20 0.0 0.0 0.00 0.00 0.00 10 1021.3
20260904034036 20 0.0 0.0 0.00 0.00 0.00 10 1021.3
20260904033035 20 0.0 0.0 0.00 0.00 0.00 10 1021.2
20260904032035 21 0.0 0.0 0.00 0.00 0.00 10 1021.2
20260904031036 22 0.0 0.0 0.00 0.00 0.00 10 1021.1
20260904030035 22 0.0 0.0 0.00 0.00 0.00 10 1021.1
20260904025046 22 0.0 0.0 0.00 0.00 0.00 10 1021.3
20260904024035 21 0.0 0.0 0.00 0.00 0.00 10 1021.4
20260904023036 21 0.0 0.0 0.00 0.00 0.00 10 1021.4
20260904022036 21 0.0 0.0 0.00 0.00 0.00 10 1021.4
20260904021035 21 0.0 0.0 0.00 0.00 0.00 10 1021.4
20260904020035 21 0.0 0.0 0.00 0.00 0.00 10 1021.4
20260904015036 21 0.0 0.0 0.00 0.00 0.00 10 1021.7
20260904014036 21 0.0 0.0 0.00 0.00 0.00 10 1021.7
20260904013051 22 0.0 0.0 0.00 0.00 0.00 10 1021.8
20260904012036 22 0.0 0.0 0.00 0.00 0.00 10 1021.7
20260904011041 22 0.0 0.0 0.00 0.00 0.00 10 1021.6
20260904010036 22 0.0 0.0 0.00 0.00 0.00 10 1021.8
20260904005041 22 0.0 0.0 0.00 0.00 0.00 10 1021.7
20260904004036 22 0.0 0.0 0.00 0.00 0.00 10 1021.8
20260904003035 22 0.0 0.0 0.00 0.00 0.00 10 1021.9
20260904002035 22 0.0 0.0 0.00 0.00 0.00 10 1021.9
20260904001036 22 0.0 0.0 0.00 0.00 0.00 10 1022.0
20260904000036 22 0.0 0.0 0.00 0.00 0.00 10 1022.0
20260903235036 22 0.0 0.0 0.00 0.00 0.00 10 1022.0
20260903234041 22 0.0 0.0 0.00 0.00 0.00 10 1022.1
20260903233046 22 0.0 0.0 0.00 0.00 0.00 10 1022.1
20260903232035 23 0.0 0.0 0.00 0.00 0.00 10 1022.1
20260903231035 23 0.0 0.0 0.00 0.00 0.00 10 1022.1
20260903230036 23 0.0 0.0 0.00 0.00 0.00 10 1022.1
20260903225035 23 0.0 0.0 0.00 0.00 0.00 10 1022.1
20260903224036 23 0.0 0.0 0.00 0.00 0.00 10 1022.0
20260903223036 23 0.0 0.0 0.00 0.00 0.00 10 1022.0
20260903222036 23 0.0 0.0 0.00 0.00 0.00 10 1021.9
20260903221036 23 0.0 0.0 0.00 0.00 0.00 10 1021.9
20260903220036 24 0.0 0.0 0.00 0.00 0.00 10 1021.9
20260903215035 24 0.0 0.0 0.00 0.00 0.00 10 1021.9
20260903214035 25 0.0 0.0 0.00 0.00 0.00 10 1021.8
20260903213035 25 0.0 0.0 0.00 0.00 0.00 10 1021.8
20260903212036 25 0.0 0.0 0.00 0.00 0.00 10 1021.8
20260903211036 25 0.0 0.0 0.00 0.00 0.00 98 1021.8
20260903210036 25 0.0 0.0 0.00 0.00 0.00 98 1021.8
20260903205036 25 0.0 0.0 0.00 0.00 0.00 10 1021.8
20260903204036 25 0.0 0.0 0.00 0.00 0.00 98 1021.8
20260903203036 25 0.0 0.0 0.00 0.00 0.00 95 1021.9
20260903202041 26 0.0 0.0 0.00 0.00 0.00 92 1021.8
20260903201036 26 0.0 0.0 0.00 0.00 0.00 92 1021.6
20260903200036 26 0.0 0.0 0.00 0.00 0.00 93 1021.7
20260903195036 26 0.0 0.0 0.00 0.00 0.00 91 1021.5
20260903194036 26 0.0 0.0 0.00 0.00 0.00 90 1021.5
20260903193036 26 0.0 0.0 0.00 0.00 0.00 90 1021.3
20260903192036 26 0.0 0.0 0.00 0.00 0.00 88 1021.1
20260903191036 26 0.0 0.0 0.00 0.00 0.00 87 1020.9
20260903190041 26 0.0 0.0 0.00 0.00 0.00 86 1020.8
20260903185036 26 0.0 0.0 0.00 0.00 0.00 88 1020.6
20260903184036 27 0.0 0.0 0.00 0.00 0.00 84 1020.5
20260903183036 27 0.0 0.0 0.00 0.00 0.00 83 1020.3
20260903182036 27 0.0 0.0 0.00 0.00 0.00 79 1020.2
20260903181035 27 0.0 0.0 0.00 0.00 0.00 76 1020.1
20260903180036 28 0.0 0.0 0.00 0.00 0.00 72 1019.8
20260903175035 28 0.0 0.0 0.00 0.00 0.00 69 1019.8